| time (UTC) | temp C | wind direction | speed KPH | gust KPH | rain 1hr cm | rain 24hr cm | rain mn cm | humidity % | barometer mb |
| 20260506165335 | 12 | 44 | 1.6 | 3.2 | 0.00 | 0.18 | 0.18 | 88 | 1013.5 |
| 20260506164831 | 12 | 100 | 1.6 | 3.2 | 0.00 | 0.18 | 0.18 | 88 | 1013.5 |
| 20260506164327 | 12 | 37 | 3.2 | 4.8 | 0.00 | 0.18 | 0.18 | 88 | 1013.2 |
| 20260506163825 | 12 | 37 | 6.4 | 9.7 | 0.00 | 0.18 | 0.18 | 88 | 1013.0 |
| 20260506163319 | 12 | 262 | 9.7 | 12.9 | 0.00 | 0.18 | 0.18 | 88 | 1013.1 |
| 20260506162815 | 12 | 87 | 6.4 | 12.9 | 0.00 | 0.18 | 0.18 | 88 | 1013.4 |
| 20260506162313 | 12 | 12 | 3.2 | 3.2 | 0.00 | 0.18 | 0.18 | 88 | 1013.5 |
| 20260506161810 | 12 | 51 | 1.6 | 3.2 | 0.00 | 0.18 | 0.18 | 88 | 1013.1 |
| 20260506161308 | 12 | 4 | 3.2 | 3.2 | 0.00 | 0.18 | 0.18 | 89 | 1013.3 |
| 20260506160805 | 12 | 55 | 3.2 | 4.8 | 0.00 | 0.18 | 0.18 | 90 | 1013.4 |
| 20260506160302 | 12 | 228 | 3.2 | 3.2 | 0.00 | 0.18 | 0.18 | 91 | 1013.7 |
| 20260506155801 | 12 | 104 | 1.6 | 1.6 | 0.00 | 0.18 | 0.18 | 91 | 1013.8 |
| 20260506155257 | 12 | 51 | 1.6 | 1.6 | 0.00 | 0.18 | 0.18 | 91 | 1013.8 |
| 20260506153410 | 12 | 11 | 1.6 | 3.2 | 0.00 | 0.18 | 0.18 | 92 | 1012.6 |
| 20260506152907 | 12 | 89 | 4.8 | 8.0 | 0.18 | 0.18 | 0.18 | 91 | 1013.1 |
| 20260506152404 | 12 | 318 | 9.7 | 11.3 | 0.18 | 0.18 | 0.18 | 90 | 1013.4 |
| 20260506151902 | 12 | 358 | 6.4 | 8.0 | 0.30 | 0.15 | 0.15 | 90 | 1014.5 |
| 20260506151359 | 12 | 230 | 1.6 | 1.6 | 0.89 | 0.15 | 0.15 | 89 | 1014.1 |
| 20260506150856 | 12 | 32 | 4.8 | 8.0 | 0.61 | 0.10 | 0.10 | 87 | 1013.9 |
| 20260506150352 | 12 | 294 | 3.2 | 3.2 | 0.00 | 0.00 | 0.00 | 85 | 1014.8 |
| 20260506145849 | 12 | 232 | 1.6 | 3.2 | 0.00 | 0.00 | 0.00 | 85 | 1014.7 |
| 20260506145345 | 12 | 275 | 3.2 | 3.2 | 0.00 | 0.00 | 0.00 | 84 | 1015.2 |
| 20260506144843 | 12 | 194 | 3.2 | 4.8 | 0.00 | 0.00 | 0.00 | 84 | 1014.7 |
| 20260506144339 | 12 | 220 | 3.2 | 3.2 | 0.00 | 0.00 | 0.00 | 83 | 1014.7 |
| 20260506143838 | 12 | 293 | 11.3 | 12.9 | 0.00 | 0.00 | 0.00 | 82 | 1015.2 |
| 20260506143335 | 12 | 218 | 1.6 | 3.2 | 0.00 | 0.00 | 0.00 | 82 | 1013.1 |
| 20260506142833 | 12 | 70 | 1.6 | 1.6 | 0.00 | 0.00 | 0.00 | 82 | 1012.8 |
| 20260506142331 | 12 | 78 | 3.2 | 4.8 | 0.00 | 0.00 | 0.00 | 82 | 1013.5 |
| 20260506141829 | 12 | 303 | 6.4 | 9.7 | 0.00 | 0.00 | 0.00 | 82 | 1013.2 |
| 20260506141327 | 12 | 313 | 9.7 | 12.9 | 0.00 | 0.00 | 0.00 | 82 | 1013.7 |
| 20260506140824 | 12 | 216 | 1.6 | 1.6 | 0.00 | 0.00 | 0.00 | 82 | 1013.5 |
| 20260506140321 | 12 | 348 | 3.2 | 4.8 | 0.00 | 0.00 | 0.00 | 82 | 1013.2 |
| 20260506135818 | 12 | 196 | 1.6 | 3.2 | 0.00 | 0.00 | 0.00 | 82 | 1013.4 |
| 20260506135314 | 12 | 359 | 3.2 | 8.0 | 0.00 | 0.00 | 0.00 | 82 | 1013.5 |
| 20260506134811 | 12 | 294 | 8.0 | 9.7 | 0.00 | 0.00 | 0.00 | 82 | 1012.9 |
| 20260506134308 | 12 | 252 | 4.8 | 11.3 | 0.00 | 0.00 | 0.00 | 81 | 1012.6 |
| 20260506133804 | 12 | 32 | 6.4 | 9.7 | 0.00 | 0.00 | 0.00 | 81 | 1012.8 |
| 20260506133301 | 12 | 32 | 4.8 | 8.0 | 0.00 | 0.00 | 0.00 | 81 | 1012.6 |
| 20260506132758 | 12 | 238 | 4.8 | 8.0 | 0.00 | 0.00 | 0.00 | 80 | 1012.6 |
| 20260506132255 | 12 | 323 | 3.2 | 3.2 | 0.00 | 0.00 | 0.00 | 79 | 1012.6 |
| 20260506131753 | 12 | 9 | 3.2 | 4.8 | 0.00 | 0.00 | 0.00 | 79 | 1012.6 |
| 20260506131249 | 12 | 46 | 4.8 | 4.8 | 0.00 | 0.00 | 0.00 | 78 | 1012.3 |
| 20260506130746 | 12 | 333 | 4.8 | 11.3 | 0.00 | 0.00 | 0.00 | 78 | 1012.2 |
| 20260506130243 | 12 | 290 | 6.4 | 9.7 | 0.00 | 0.00 | 0.00 | 77 | 1012.0 |
| 20260506125741 | 13 | 317 | 4.8 | 9.7 | 0.00 | 0.00 | 0.00 | 77 | 1012.0 |
| 20260506125238 | 13 | 348 | 3.2 | 4.8 | 0.00 | 0.00 | 0.00 | 77 | 1012.1 |
| 20260506124737 | 13 | 331 | 8.0 | 11.3 | 0.00 | 0.00 | 0.00 | 77 | 1012.1 |
| 20260506124234 | 13 | 288 | 8.0 | 16.1 | 0.00 | 0.00 | 0.00 | 76 | 1012.2 |
| 20260506123731 | 13 | 324 | 4.8 | 9.7 | 0.00 | 0.00 | 0.00 | 77 | 1012.2 |
| 20260506123230 | 13 | 79 | 0.0 | 1.6 | 0.00 | 0.00 | 0.00 | 77 | 1011.9 |
| 20260506122726 | 13 | 31 | 3.2 | 4.8 | 0.00 | 0.00 | 0.00 | 77 | 1012.1 |
| 20260506122223 | 13 | 346 | 9.7 | 14.5 | 0.00 | 0.00 | 0.00 | 76 | 1011.7 |
| 20260506121722 | 13 | 88 | 1.6 | 3.2 | 0.00 | 0.00 | 0.00 | 77 | 1011.6 |
| 20260506121218 | 13 | 298 | 4.8 | 8.0 | 0.00 | 0.00 | 0.00 | 77 | 1011.8 |
| 20260506120716 | 13 | 17 | 1.6 | 4.8 | 0.00 | 0.00 | 0.00 | 77 | 1011.7 |
| 20260506120213 | 13 | 43 | 9.7 | 12.9 | 0.00 | 0.00 | 0.00 | 77 | 1011.5 |
| 20260506115711 | 13 | 269 | 3.2 | 3.2 | 0.00 | 0.00 | 0.00 | 76 | 1011.6 |
| 20260506115209 | 13 | 306 | 6.4 | 8.0 | 0.00 | 0.00 | 0.00 | 76 | 1011.7 |
| 20260506114706 | 13 | 318 | 9.7 | 11.3 | 0.00 | 0.00 | 0.00 | 76 | 1011.4 |
| 20260506114204 | 13 | 286 | 3.2 | 8.0 | 0.00 | 0.00 | 0.00 | 76 | 1011.6 |
| 20260506113703 | 13 | 60 | 4.8 | 9.7 | 0.00 | 0.00 | 0.00 | 76 | 1011.3 |
| 20260506113159 | 13 | 32 | 4.8 | 4.8 | 0.00 | 0.00 | 0.00 | 76 | 1011.0 |
| 20260506112655 | 13 | 166 | 0.0 | 1.6 | 0.00 | 0.00 | 0.00 | 76 | 1011.0 |
| 20260506112153 | 13 | 328 | 3.2 | 3.2 | 0.00 | 0.00 | 0.00 | 76 | 1010.7 |
| 20260506111650 | 13 | 1 | 1.6 | 1.6 | 0.00 | 0.00 | 0.00 | 77 | 1010.6 |
| 20260506111148 | 13 | 70 | 1.6 | 1.6 | 0.00 | 0.00 | 0.00 | 77 | 1010.7 |
| 20260506110646 | 13 | 357 | 4.8 | 8.0 | 0.00 | 0.00 | 0.00 | 77 | 1011.0 |
| 20260506110143 | 13 | 10 | 6.4 | 11.3 | 0.00 | 0.00 | 0.00 | 77 | 1010.8 |
| 20260506105639 | 14 | 58 | 1.6 | 3.2 | 0.00 | 0.00 | 0.00 | 77 | 1010.5 |
| 20260506105136 | 14 | 284 | 8.0 | 9.7 | 0.00 | 0.00 | 0.00 | 77 | 1010.6 |
| 20260506104634 | 14 | 242 | 4.8 | 4.8 | 0.00 | 0.00 | 0.00 | 77 | 1010.4 |
| 20260506104131 | 14 | 259 | 1.6 | 4.8 | 0.00 | 0.00 | 0.00 | 77 | 1010.5 |
| 20260506103629 | 15 | 25 | 9.7 | 16.1 | 0.00 | 0.00 | 0.00 | 76 | 1010.2 |
| 20260506103125 | 15 | 219 | 4.8 | 8.0 | 0.00 | 0.00 | 0.00 | 76 | 1010.1 |
| 20260506102624 | 15 | 72 | 6.4 | 9.7 | 0.00 | 0.00 | 0.00 | 76 | 1010.1 |
| 20260506102121 | 15 | 53 | 4.8 | 8.0 | 0.00 | 0.00 | 0.00 | 76 | 1009.7 |
| 20260506101617 | 15 | 351 | 3.2 | 3.2 | 0.00 | 0.00 | 0.00 | 77 | 1009.8 |
| 20260506101114 | 15 | 86 | 3.2 | 4.8 | 0.00 | 0.00 | 0.00 | 77 | 1009.7 |
| 20260506100613 | 15 | 7 | 4.8 | 8.0 | 0.00 | 0.00 | 0.00 | 77 | 1009.5 |
| 20260506100110 | 15 | 358 | 3.2 | 4.8 | 0.00 | 0.00 | 0.00 | 77 | 1009.7 |
| 20260506095609 | 15 | 14 | 3.2 | 3.2 | 0.00 | 0.00 | 0.00 | 77 | 1009.5 |
| 20260506095105 | 15 | 53 | 8.0 | 12.9 | 0.00 | 0.00 | 0.00 | 76 | 1009.6 |
| 20260506094603 | 15 | 329 | 8.0 | 11.3 | 0.00 | 0.00 | 0.00 | 77 | 1009.4 |
| 20260506094100 | 15 | 227 | 1.6 | 3.2 | 0.00 | 0.00 | 0.00 | 77 | 1009.5 |
| 20260506093558 | 15 | 284 | 1.6 | 3.2 | 0.00 | 0.00 | 0.00 | 77 | 1009.5 |
| 20260506093055 | 15 | 355 | 4.8 | 4.8 | 0.00 | 0.00 | 0.00 | 77 | 1009.5 |
| 20260506092553 | 15 | 340 | 1.6 | 3.2 | 0.00 | 0.00 | 0.00 | 77 | 1009.4 |
| 20260506092050 | 15 | 158 | 0.0 | 1.6 | 0.00 | 0.00 | 0.00 | 77 | 1009.3 |
| 20260506091548 | 15 | 235 | 3.2 | 3.2 | 0.00 | 0.00 | 0.00 | 77 | 1009.3 |
| 20260506091045 | 15 | 218 | 3.2 | 4.8 | 0.00 | 0.00 | 0.00 | 77 | 1009.3 |
| 20260506090543 | 15 | 207 | 1.6 | 1.6 | 0.00 | 0.00 | 0.00 | 76 | 1009.4 |
| 20260506090039 | 15 | 324 | 3.2 | 3.2 | 0.00 | 0.00 | 0.00 | 76 | 1009.3 |
| 20260506085536 | 15 | 83 | 1.6 | 1.6 | 0.00 | 0.00 | 0.00 | 77 | 1009.2 |
| 20260506085032 | 15 | 78 | 1.6 | 3.2 | 0.00 | 0.00 | 0.00 | 76 | 1009.5 |
| 20260506084530 | 15 | 313 | 1.6 | 1.6 | 0.00 | 0.00 | 0.00 | 77 | 1009.1 |
| 20260506084025 | 15 | 12 | 9.7 | 11.3 | 0.00 | 0.00 | 0.00 | 76 | 1009.1 |
| 20260506083523 | 15 | 17 | 6.4 | 8.0 | 0.00 | 0.00 | 0.00 | 77 | 1009.2 |
| 20260506083020 | 15 | 5 | 3.2 | 3.2 | 0.00 | 0.00 | 0.00 | 77 | 1009.2 |
| 20260506082517 | 15 | 173 | 3.2 | 4.8 | 0.00 | 0.00 | 0.00 | 76 | 1009.2 |
| 20260506082012 | 16 | 26 | 3.2 | 4.8 | 0.00 | 0.00 | 0.00 | 76 | 1009.0 |
| 20260506081511 | 16 | 129 | 0.0 | 0.0 | 0.00 | 0.00 | 0.00 | 76 | 1008.8 |
| 20260506081008 | 16 | 281 | 3.2 | 4.8 | 0.00 | 0.00 | 0.00 | 77 | 1008.7 |
| 20260506080505 | 16 | 294 | 4.8 | 4.8 | 0.00 | 0.00 | 0.00 | 77 | 1008.5 |
| 20260506073449 | 16 | 53 | 3.2 | 3.2 | 0.00 | 0.00 | 0.00 | 78 | 1008.6 |
| 20260506072946 | 16 | 54 | 4.8 | 8.0 | 0.00 | 0.00 | 0.00 | 77 | 1008.9 |
| 20260506072443 | 16 | 61 | 0.0 | 0.0 | 0.00 | 0.00 | 0.00 | 77 | 1008.7 |
| 20260506071941 | 16 | 73 | 0.0 | 0.0 | 0.00 | 0.00 | 0.00 | 77 | 1008.6 |
| 20260506071439 | 16 | 121 | 4.8 | 8.0 | 0.00 | 0.00 | 0.00 | 78 | 1009.0 |
| 20260506070935 | 16 | 103 | 0.0 | 0.0 | 0.00 | 0.00 | 0.00 | 78 | 1008.8 |
| 20260506070432 | 16 | 86 | 6.4 | 9.7 | 0.00 | 0.00 | 0.00 | 78 | 1008.9 |
| 20260506062410 | 17 | 267 | 3.2 | 3.2 | 0.00 | 0.00 | 0.00 | 78 | 1008.6 |
| 20260506061906 | 17 | 22 | 4.8 | 8.0 | 0.00 | 0.00 | 0.00 | 78 | 1008.5 |
| 20260506061402 | 17 | 327 | 3.2 | 8.0 | 0.00 | 0.00 | 0.00 | 78 | 1008.6 |
| 20260506060900 | 17 | 35 | 9.7 | 11.3 | 0.00 | 0.00 | 0.00 | 78 | 1008.6 |
| 20260506060358 | 17 | 82 | 6.4 | 12.9 | 0.00 | 0.00 | 0.00 | 78 | 1008.6 |
| 20260506051330 | 18 | 9 | 1.6 | 3.2 | 0.00 | 0.00 | 0.00 | 77 | 1008.8 |
| 20260506050828 | 18 | 357 | 4.8 | 8.0 | 0.00 | 0.00 | 0.00 | 76 | 1008.7 |
| 20260506050325 | 18 | 87 | 3.2 | 3.2 | 0.00 | 0.00 | 0.00 | 76 | 1008.5 |
| 20260506044815 | 18 | 342 | 1.6 | 4.8 | 0.00 | 0.00 | 0.00 | 77 | 1008.6 |
| 20260506044313 | 19 | 56 | 4.8 | 8.0 | 0.00 | 0.00 | 0.00 | 77 | 1008.2 |
| 20260506043810 | 19 | 31 | 11.3 | 14.5 | 0.00 | 0.00 | 0.00 | 76 | 1008.6 |
| 20260506043307 | 20 | 318 | 4.8 | 9.7 | 0.00 | 0.00 | 0.00 | 76 | 1008.5 |
| 20260506042806 | 20 | 251 | 3.2 | 4.8 | 0.00 | 0.00 | 0.00 | 76 | 1008.5 |
| 20260506042305 | 20 | 269 | 4.8 | 8.0 | 0.00 | 0.00 | 0.00 | 75 | 1008.0 |
| 20260506041803 | 20 | 1 | 8.0 | 12.9 | 0.00 | 0.00 | 0.00 | 75 | 1008.5 |
| 20260506041259 | 20 | 76 | 3.2 | 4.8 | 0.00 | 0.00 | 0.00 | 74 | 1008.6 |
| 20260506040756 | 20 | 143 | 0.0 | 1.6 | 0.00 | 0.00 | 0.00 | 74 | 1008.2 |
| 20260506040254 | 20 | 106 | 0.0 | 0.0 | 0.00 | 0.00 | 0.00 | 74 | 1007.9 |
| 20260506035750 | 20 | 47 | 3.2 | 3.2 | 0.00 | 0.00 | 0.00 | 74 | 1007.9 |
| 20260506035247 | 20 | 44 | 0.0 | 1.6 | 0.00 | 0.00 | 0.00 | 74 | 1007.4 |
| 20260506034744 | 20 | 58 | 1.6 | 1.6 | 0.00 | 0.00 | 0.00 | 73 | 1007.4 |
| 20260506034241 | 20 | 10 | 9.7 | 12.9 | 0.00 | 0.00 | 0.00 | 73 | 1007.6 |
| 20260506033738 | 20 | 354 | 8.0 | 9.7 | 0.00 | 0.00 | 0.00 | 73 | 1007.6 |
| 20260506033236 | 20 | 292 | 3.2 | 3.2 | 0.00 | 0.00 | 0.00 | 73 | 1007.4 |
| 20260506032732 | 21 | 345 | 11.3 | 16.1 | 0.00 | 0.00 | 0.00 | 72 | 1007.4 |
| 20260506032229 | 21 | 246 | 3.2 | 4.8 | 0.00 | 0.00 | 0.00 | 72 | 1007.3 |
| 20260506031726 | 21 | 328 | 4.8 | 9.7 | 0.00 | 0.00 | 0.00 | 71 | 1007.1 |
| 20260506031223 | 21 | 150 | 0.0 | 1.6 | 0.00 | 0.00 | 0.00 | 71 | 1007.3 |
| 20260506030721 | 21 | 125 | 1.6 | 3.2 | 0.00 | 0.00 | 0.00 | 70 | 1007.2 |
| 20260506030219 | 21 | 161 | 0.0 | 1.6 | 0.00 | 0.00 | 0.00 | 70 | 1006.9 |
| 20260506025715 | 21 | 344 | 3.2 | 4.8 | 0.00 | 0.00 | 0.00 | 70 | 1006.8 |
| 20260506025212 | 21 | 356 | 8.0 | 11.3 | 0.00 | 0.00 | 0.00 | 69 | 1007.0 |
| 20260506024709 | 21 | 248 | 0.0 | 0.0 | 0.00 | 0.00 | 0.00 | 69 | 1006.9 |
| 20260506024205 | 22 | 310 | 6.4 | 9.7 | 0.00 | 0.00 | 0.00 | 69 | 1006.7 |
| 20260506023701 | 22 | 81 | 0.0 | 0.0 | 0.00 | 0.00 | 0.00 | 69 | 1006.6 |
| 20260506023159 | 22 | 281 | 3.2 | 8.0 | 0.00 | 0.00 | 0.00 | 69 | 1006.3 |
| 20260506022656 | 22 | 344 | 0.0 | 0.0 | 0.00 | 0.00 | 0.00 | 69 | 1006.3 |
| 20260506022153 | 22 | 246 | 0.0 | 0.0 | 0.00 | 0.00 | 0.00 | 68 | 1006.1 |
| 20260506021651 | 22 | 45 | 0.0 | 1.6 | 0.00 | 0.00 | 0.00 | 68 | 1006.1 |
| 20260506021148 | 22 | 307 | 1.6 | 3.2 | 0.00 | 0.00 | 0.00 | 68 | 1005.8 |
| 20260506020645 | 23 | 308 | 4.8 | 8.0 | 0.00 | 0.00 | 0.00 | 68 | 1005.7 |
| 20260506020143 | 23 | 252 | 3.2 | 3.2 | 0.00 | 0.00 | 0.00 | 68 | 1005.1 |
| 20260506015640 | 23 | 350 | 6.4 | 9.7 | 0.00 | 0.00 | 0.00 | 67 | 1005.6 |
| 20260506015137 | 23 | 155 | 0.0 | 1.6 | 0.00 | 0.00 | 0.00 | 67 | 1005.4 |
| 20260506014635 | 23 | 68 | 0.0 | 1.6 | 0.00 | 0.00 | 0.00 | 67 | 1005.3 |
| 20260506014130 | 23 | 45 | 1.6 | 1.6 | 0.00 | 0.00 | 0.00 | 67 | 1005.0 |
| 20260506013629 | 23 | 120 | 0.0 | 1.6 | 0.00 | 0.00 | 0.00 | 67 | 1005.3 |
| 20260506013125 | 23 | 315 | 1.6 | 4.8 | 0.00 | 0.00 | 0.00 | 67 | 1005.2 |
| 20260506012621 | 23 | 325 | 6.4 | 11.3 | 0.00 | 0.00 | 0.00 | 67 | 1004.9 |
| 20260506012118 | 24 | 38 | 6.4 | 8.0 | 0.00 | 0.00 | 0.00 | 66 | 1004.6 |
| 20260506011616 | 24 | 343 | 0.0 | 1.6 | 0.00 | 0.00 | 0.00 | 66 | 1004.8 |
| 20260506011112 | 25 | 88 | 0.0 | 3.2 | 0.00 | 0.00 | 0.00 | 65 | 1004.8 |
| 20260506010611 | 25 | 332 | 8.0 | 11.3 | 0.00 | 0.00 | 0.00 | 64 | 1005.1 |
| 20260506010108 | 25 | 27 | 6.4 | 8.0 | 0.00 | 0.00 | 0.00 | 63 | 1004.6 |
| 20260506005605 | 26 | 329 | 4.8 | 8.0 | 0.00 | 0.00 | 0.00 | 63 | 1004.7 |
| 20260506005101 | 26 | 340 | 0.0 | 0.0 | 0.00 | 0.00 | 0.00 | 63 | 1004.4 |
| 20260506004558 | 26 | 60 | 3.2 | 3.2 | 0.00 | 0.00 | 0.00 | 62 | 1004.5 |
| 20260506004055 | 26 | 342 | 3.2 | 4.8 | 0.00 | 0.00 | 0.00 | 62 | 1004.5 |
| 20260506003551 | 26 | 358 | 4.8 | 8.0 | 0.00 | 0.00 | 0.00 | 62 | 1004.3 |
| 20260506003047 | 26 | 32 | 1.6 | 4.8 | 0.00 | 0.00 | 0.00 | 62 | 1004.5 |
| 20260506002543 | 26 | 229 | 1.6 | 3.2 | 0.00 | 0.00 | 0.00 | 62 | 1004.5 |
| 20260506002039 | 27 | 49 | 1.6 | 3.2 | 0.00 | 0.00 | 0.00 | 61 | 1004.4 |
| 20260506001536 | 27 | 329 | 4.8 | 9.7 | 0.00 | 0.00 | 0.00 | 60 | 1004.2 |
| 20260506001033 | 27 | 219 | 3.2 | 4.8 | 0.00 | 0.00 | 0.00 | 59 | 1003.8 |
| 20260506000530 | 27 | 343 | 1.6 | 1.6 | 0.00 | 0.00 | 0.00 | 59 | 1004.2 |
| 20260506000028 | 28 | 230 | 0.0 | 1.6 | 0.00 | 0.00 | 0.00 | 59 | 1004.2 |
| 20260505235526 | 28 | 58 | 0.0 | 1.6 | 0.00 | 0.00 | 0.00 | 59 | 1003.7 |
| 20260505235022 | 28 | 312 | 3.2 | 4.8 | 0.00 | 0.00 | 0.00 | 58 | 1003.8 |
| 20260505234519 | 28 | 355 | 1.6 | 3.2 | 0.00 | 0.00 | 0.00 | 57 | 1003.7 |
| 20260505234016 | 29 | 331 | 4.8 | 8.0 | 0.00 | 0.00 | 0.00 | 55 | 1003.7 |
| 20260505233514 | 30 | 302 | 4.8 | 4.8 | 0.00 | 0.00 | 0.00 | 53 | 1003.6 |
| 20260505233011 | 30 | 187 | 0.0 | 0.0 | 0.00 | 0.00 | 0.00 | 51 | 1003.3 |
| 20260505232509 | 30 | 328 | 0.0 | 0.0 | 0.00 | 0.00 | 0.00 | 50 | 1003.5 |
| 20260505232006 | 30 | 176 | 1.6 | 3.2 | 0.00 | 0.00 | 0.00 | 50 | 1003.3 |
| 20260505231503 | 31 | 293 | 4.8 | 8.0 | 0.00 | 0.00 | 0.00 | 49 | 1003.3 |
| 20260505231001 | 31 | 358 | 6.4 | 8.0 | 0.00 | 0.00 | 0.00 | 59 | 1003.1 |
| 20260505230458 | 31 | 241 | 1.6 | 1.6 | 0.00 | 0.00 | 0.00 | 59 | 1003.0 |
| 20260505225954 | 31 | 162 | 1.6 | 3.2 | 0.00 | 0.00 | 0.00 | 58 | 1002.6 |
| 20260505225452 | 31 | 121 | 0.0 | 0.0 | 0.00 | 0.00 | 0.00 | 58 | 1002.5 |
| 20260505224948 | 32 | 126 | 0.0 | 1.6 | 0.00 | 0.00 | 0.00 | 57 | 1002.4 |
| 20260505224445 | 32 | 143 | 0.0 | 0.0 | 0.00 | 0.00 | 0.00 | 57 | 1002.2 |
| 20260505223942 | 33 | 181 | 0.0 | 1.6 | 0.00 | 0.00 | 0.00 | 52 | 1002.6 |
| 20260505223439 | 33 | 151 | 0.0 | 0.0 | 0.00 | 0.00 | 0.00 | 49 | 1002.7 |
| 20260505222935 | 34 | 145 | 0.0 | 0.0 | 0.00 | 0.00 | 0.00 | 47 | 1002.4 |
| 20260505222431 | 33 | 149 | 0.0 | 0.0 | 0.00 | 0.00 | 0.00 | 48 | 1002.4 |
| 20260505221927 | 33 | 268 | 0.0 | 1.6 | 0.00 | 0.00 | 0.00 | 48 | 1002.5 |
| 20260505221425 | 33 | 173 | 0.0 | 0.0 | 0.00 | 0.00 | 0.00 | 49 | 1002.5 |
| 20260505220922 | 33 | 145 | 0.0 | 0.0 | 0.00 | 0.00 | 0.00 | 48 | 1002.4 |
| 20260505220419 | 33 | 123 | 4.8 | 4.8 | 0.00 | 0.00 | 0.00 | 49 | 1002.4 |
| 20260505215916 | 33 | 161 | 1.6 | 3.2 | 0.00 | 0.00 | 0.00 | 48 | 1002.4 |
| 20260505215414 | 33 | 147 | 0.0 | 0.0 | 0.00 | 0.00 | 0.00 | 49 | 1002.5 |
| 20260505214912 | 33 | 142 | 0.0 | 0.0 | 0.00 | 0.00 | 0.00 | 50 | 1002.3 |
| 20260505214409 | 33 | 147 | 1.6 | 3.2 | 0.00 | 0.00 | 0.00 | 49 | 1002.6 |
| 20260505213907 | 32 | 133 | 0.0 | 1.6 | 0.00 | 0.00 | 0.00 | 52 | 1002.8 |
| 20260505213404 | 33 | 72 | 0.0 | 0.0 | 0.00 | 0.00 | 0.00 | 50 | 1002.5 |
| 20260505212900 | 33 | 129 | 1.6 | 3.2 | 0.00 | 0.00 | 0.00 | 51 | 1002.5 |
| 20260505212357 | 33 | 126 | 0.0 | 1.6 | 0.00 | 0.00 | 0.00 | 50 | 1002.7 |
| 20260505211853 | 32 | 152 | 1.6 | 3.2 | 0.00 | 0.00 | 0.00 | 52 | 1002.8 |
| 20260505211351 | 32 | 204 | 1.6 | 4.8 | 0.00 | 0.00 | 0.00 | 51 | 1002.8 |
| 20260505210847 | 32 | 143 | 1.6 | 3.2 | 0.00 | 0.00 | 0.00 | 52 | 1003.1 |
| 20260505210344 | 32 | 131 | 1.6 | 3.2 | 0.00 | 0.00 | 0.00 | 53 | 1002.8 |
| 20260505205841 | 32 | 143 | 0.0 | 0.0 | 0.00 | 0.00 | 0.00 | 54 | 1003.2 |
| 20260505205340 | 32 | 140 | 1.6 | 3.2 | 0.00 | 0.00 | 0.00 | 53 | 1003.2 |
| 20260505204836 | 32 | 118 | 4.8 | 8.0 | 0.00 | 0.00 | 0.00 | 53 | 1003.1 |
| 20260505204334 | 32 | 204 | 1.6 | 1.6 | 0.00 | 0.00 | 0.00 | 55 | 1002.8 |
| 20260505203831 | 32 | 133 | 0.0 | 0.0 | 0.00 | 0.00 | 0.00 | 55 | 1003.1 |
| 20260505203327 | 32 | 106 | 1.6 | 3.2 | 0.00 | 0.00 | 0.00 | 55 | 1003.4 |
| 20260505202824 | 32 | 133 | 1.6 | 3.2 | 0.00 | 0.00 | 0.00 | 55 | 1003.2 |
| 20260505202320 | 32 | 100 | 1.6 | 4.8 | 0.00 | 0.00 | 0.00 | 55 | 1003.5 |
| 20260505201817 | 32 | 196 | 1.6 | 3.2 | 0.00 | 0.00 | 0.00 | 54 | 1003.3 |
| 20260505201314 | 32 | 164 | 1.6 | 8.0 | 0.00 | 0.00 | 0.00 | 54 | 1003.7 |
| 20260505200813 | 32 | 208 | 3.2 | 8.0 | 0.00 | 0.00 | 0.00 | 56 | 1003.8 |
| 20260505200309 | 31 | 112 | 0.0 | 0.0 | 0.00 | 0.00 | 0.00 | 56 | 1003.7 |
| 20260505195804 | 32 | 333 | 3.2 | 4.8 | 0.00 | 0.00 | 0.00 | 56 | 1003.8 |
| 20260505195305 | 31 | 165 | 0.0 | 1.6 | 0.00 | 0.00 | 0.00 | 60 | 1003.7 |
| 20260505194759 | 32 | 127 | 3.2 | 4.8 | 0.00 | 0.00 | 0.00 | 58 | 1003.9 |
| 20260505194256 | 31 | 184 | 0.0 | 1.6 | 0.00 | 0.00 | 0.00 | 58 | 1003.9 |
| 20260505193757 | 31 | 162 | 4.8 | 8.0 | 0.00 | 0.00 | 0.00 | 57 | 1003.6 |
| 20260505193255 | 31 | 342 | 1.6 | 3.2 | 0.00 | 0.00 | 0.00 | 59 | 1003.8 |
| 20260505192753 | 31 | 158 | 3.2 | 8.0 | 0.00 | 0.00 | 0.00 | 60 | 1003.8 |
| 20260505192250 | 30 | 176 | 0.0 | 1.6 | 0.00 | 0.00 | 0.00 | 62 | 1003.8 |
| 20260505191748 | 31 | 158 | 0.0 | 3.2 | 0.00 | 0.00 | 0.00 | 62 | 1003.9 |
| 20260505191246 | 31 | 103 | 4.8 | 9.7 | 0.00 | 0.00 | 0.00 | 61 | 1003.8 |
| 20260505190742 | 30 | 159 | 1.6 | 3.2 | 0.00 | 0.00 | 0.00 | 63 | 1003.7 |
| 20260505190237 | 30 | 122 | 0.0 | 0.0 | 0.00 | 0.00 | 0.00 | 62 | 1003.8 |
| 20260505185734 | 31 | 205 | 3.2 | 8.0 | 0.00 | 0.00 | 0.00 | 62 | 1003.7 |
| 20260505185231 | 30 | 139 | 8.0 | 9.7 | 0.00 | 0.00 | 0.00 | 63 | 1004.0 |
| 20260505184726 | 30 | 144 | 3.2 | 4.8 | 0.00 | 0.00 | 0.00 | 63 | 1003.8 |
| 20260505184224 | 30 | 127 | 0.0 | 0.0 | 0.00 | 0.00 | 0.00 | 63 | 1004.1 |
| 20260505183720 | 30 | 178 | 1.6 | 3.2 | 0.00 | 0.00 | 0.00 | 64 | 1004.2 |
| 20260505183218 | 30 | 126 | 0.0 | 0.0 | 0.00 | 0.00 | 0.00 | 62 | 1003.9 |
| 20260505182714 | 30 | 240 | 0.0 | 1.6 | 0.00 | 0.00 | 0.00 | 63 | 1004.0 |
| 20260505182211 | 30 | 161 | 4.8 | 8.0 | 0.00 | 0.00 | 0.00 | 64 | 1004.4 |
| 20260505181708 | 29 | 126 | 0.0 | 0.0 | 0.00 | 0.00 | 0.00 | 66 | 1004.2 |
| 20260505181206 | 29 | 230 | 0.0 | 0.0 | 0.00 | 0.00 | 0.00 | 64 | 1004.2 |
| 20260505180701 | 29 | 160 | 6.4 | 9.7 | 0.00 | 0.00 | 0.00 | 65 | 1004.0 |
| 20260505180159 | 30 | 149 | 3.2 | 11.3 | 0.00 | 0.00 | 0.00 | 65 | 1004.0 |
| 20260505175654 | 29 | 304 | 0.0 | 1.6 | 0.00 | 0.00 | 0.00 | 65 | 1004.3 |
| 20260505175151 | 29 | 163 | 0.0 | 0.0 | 0.00 | 0.00 | 0.00 | 67 | 1004.3 |
| 20260505174648 | 29 | 157 | 3.2 | 4.8 | 0.00 | 0.00 | 0.00 | 66 | 1004.3 |
| 20260505174144 | 29 | 208 | 1.6 | 1.6 | 0.00 | 0.00 | 0.00 | 66 | 1004.3 |
| 20260505173641 | 28 | 225 | 3.2 | 4.8 | 0.00 | 0.00 | 0.00 | 67 | 1004.1 |
| 20260505173137 | 28 | 87 | 6.4 | 11.3 | 0.00 | 0.00 | 0.00 | 66 | 1004.6 |
| 20260505172635 | 28 | 213 | 1.6 | 3.2 | 0.00 | 0.00 | 0.00 | 68 | 1004.5 |
| 20260505172132 | 28 | 106 | 3.2 | 4.8 | 0.00 | 0.00 | 0.00 | 68 | 1004.3 |
| 20260505171631 | 28 | 78 | 4.8 | 8.0 | 0.00 | 0.00 | 0.00 | 67 | 1004.2 |
| 20260505171129 | 28 | 118 | 3.2 | 9.7 | 0.00 | 0.00 | 0.00 | 68 | 1004.2 |
| 20260505170626 | 28 | 125 | 3.2 | 9.7 | 0.00 | 0.00 | 0.00 | 67 | 1004.2 |
| 20260505170122 | 28 | 290 | 1.6 | 4.8 | 0.00 | 0.00 | 0.00 | 66 | 1004.4 |